Location: Banios
(43.0451°N, 0.2335°E)
Time: 12:11:14
(UTC+00:00)

Cosmos 2298 Rocket - Pass Details

Date: 25 January 2021
Orbit: 775 x 784 km, 74.0° (Epoch: 25 February)

Event Time Altitude Azimuth Distance (km) Brightness Sun altitude
Exits shadow 06:05:03 - 334° (NNW) 2,703 6.5 -13.9°
Reaches altitude 10° 06:05:59 10° 332° (NNW) 2,350 6.1 -13.7°
Maximum altitude 06:11:12 58° 255° (WSW) 917 4.1 -12.8°
Drops below altitude 10° 06:16:24 10° 177° (S) 2,333 6.7 -11.9°
Sets 06:18:48 0° 173° (S) 3,256 7.6 -11.5°
